Hourly Data Report for September 09, 2017

All times are specified in Local Standard Time (LST). Add 1 hour to adjust for Daylight Saving Time where and when it is observed.

ALGONQUIN PARK EAST GATE
ONTARIO

45°32'00.000" N
78°16'00.000" W
397.00 m
6080192
71581
TNK

Download Data

Hourly Data (September 2017)
Hourly Data Report for September 9, 2017
Temp Definition
°C
Dew Point Temp Definition
°C
Rel Hum Definition
%
Wind Dir Definition
10's deg

Wind Spd Definition
km/h
Visibility Definition
km
Stn Press Definition
kPa
Hmdx Definition


Wind Chill Definition


Weather Definition


TIME
00:00 4.2 2.8 90 LegendMM LegendMM   97.93     LegendNANA
01:00 3.4 2.1 92 LegendMM LegendMM   97.96     LegendNANA
02:00 2.8 1.8 93 LegendMM LegendMM   97.96     LegendNANA
03:00 2.5 1.6 94 LegendMM LegendMM   98.02     LegendNANA
04:00 1.9 1.0 94 LegendMM LegendMM   98.06     LegendNANA
05:00 1.5 0.7 94 LegendMM LegendMM   98.11     LegendNANA
06:00 0.9 0.1 94 LegendMM LegendMM   98.18     LegendNANA
07:00 2.8 2.1 95 LegendMM LegendMM   98.24     LegendNANA
08:00 8.7 6.1 84 LegendMM LegendMM   98.26     LegendNANA
09:00 11.0 5.0 67 LegendMM LegendMM   98.32     LegendNANA
10:00 12.4 3.2 54 LegendMM LegendMM   98.32     LegendNANA
11:00 12.5 3.4 54 LegendMM LegendMM   98.31     LegendNANA
12:00 13.4 3.2 50 LegendMM LegendMM   98.31     LegendNANA
13:00 13.1 2.8 50 LegendMM LegendMM   98.30     LegendNANA
14:00 14.2 3.8 49 LegendMM LegendMM   98.23     LegendNANA
15:00 14.5 4.3 50 LegendMM LegendMM   98.20     LegendNANA
16:00 13.9 4.0 51 LegendMM LegendMM   98.19     LegendNANA
17:00 13.4 4.2 54 LegendMM LegendMM   98.20     LegendNANA
18:00 12.0 6.2 68 LegendMM LegendMM   98.21     LegendNANA
19:00 8.2 5.3 82 LegendMM LegendMM   98.25     LegendNANA
20:00 6.7 4.8 88 LegendMM LegendMM   98.30     LegendNANA
21:00 5.3 3.8 90 LegendMM LegendMM   98.30     LegendNANA
22:00 4.1 2.7 91 LegendMM LegendMM   98.33     LegendNANA
23:00 3.3 2.1 92 LegendMM LegendMM   98.33     LegendNANA

Notes on Data Quality.

Legend

  • E = Estimated
  • M = Missing
  • NA = Not Available
  • ‡ = Partner data that is not subject to review by the National Climate Archives
Date modified: